Weather History for Prince Rupert, BC

Change the Weather History Date:

Saturday, December 7, 2013

  Actual Average Record
Temperature  
Mean Temperature 26 °F -  
Max Temperature 32 °F 41 °F 51 °F (1997)
Min Temperature 19 °F 33 °F 15 °F (2007)
Degree Days  
Heating Degree Days 40    
Moisture  
Dew Point 19 °F    
Average Humidity 77    
Maximum Humidity 93    
Minimum Humidity 55    
Precipitation  
Precipitation 0.00 in - - ()
Sea Level Pressure  
Sea Level Pressure 30.41 in    
Wind  
Wind Speed 5 mph ()    
Max Wind Speed 7 mph    
Max Gust Speed -    
Visibility 9.0 miles    
Events      
Averages and records for this station are not official NWS values.
T = Trace of Precipitation, MM = Missing Value Source: Averaged Metar Reports

Daily Weather History Graph

Daily Weather History Graph

Search for Another Location

Airport:

Trip Planner

Search our weather history database for the weather conditions in past years. The results will help you decide how hot, cold, wet, or windy it might be!

Date:

Astronomy

Dec. 07, 2013 Rise Set
Actual Time 8:48 AM PST 4:18 PM PST
Civil Twilight 8:04 AM PST 5:02 PM PST
Nautical Twilight 7:18 AM PST 5:48 PM PST
Astronomical Twilight 6:35 AM PST 6:31 PM PST
Moon 12:01 PM PST (12/7) 10:48 PM PST (12/7)
Length of Visible Light 8h 57m
Length of Day
7h 30m
Waxing Crescent, 30% of the Moon is Illuminated
Dec 7
Waxing Crescent
Dec 9
First Quarter
Dec 17
Full
Dec 25
Last Quarter
Jan 1
New

Hourly Weather History & Observations

Time (PST) Temp. Windchill Dew Point Humidity Pressure Visibility Wind Dir Wind Speed Gust Speed Precip Events Conditions
12:00 AM 24.8 °F 16.9 °F 17.6 °F 74% 30.48 in 9.0 mi ENE 6.9 mph - N/A   Clear
1:00 AM 23.0 °F 14.7 °F 15.8 °F 74% 30.45 in 9.0 mi ENE 6.9 mph - N/A   Clear
2:00 AM 23.0 °F 14.7 °F 17.6 °F 80% 30.44 in 9.0 mi ENE 6.9 mph - N/A   Clear
3:00 AM 23.0 °F 15.8 °F 17.6 °F 80% 30.44 in 9.0 mi ENE 5.8 mph - N/A   Clear
4:00 AM 21.2 °F 12.6 °F 19.4 °F 93% 30.43 in 9.0 mi NE 6.9 mph - N/A   Overcast
5:00 AM 23.0 °F 15.8 °F 21.2 °F 93% 30.40 in 9.0 mi ENE 5.8 mph - N/A   Overcast
6:00 AM 23.0 °F 17.0 °F 19.4 °F 86% 30.40 in 9.0 mi NE 4.6 mph - N/A   Mostly Cloudy
7:00 AM 23.0 °F 18.4 °F 19.4 °F 86% 30.39 in 9.0 mi NNE 3.5 mph - N/A   Clear
8:00 AM 21.2 °F - 17.6 °F 86% 30.38 in 9.0 mi Calm Calm - N/A   Clear
9:00 AM 19.4 °F 14.3 °F 17.6 °F 93% 30.39 in 9.0 mi SSE 3.5 mph - N/A   Clear
10:00 AM 21.2 °F 14.9 °F 17.6 °F 86% 30.40 in 9.0 mi East 4.6 mph - N/A   Clear
11:00 AM 28.4 °F 23.3 °F 23.0 °F 80% 30.40 in 9.0 mi ENE 4.6 mph - N/A   Clear
12:00 PM 30.2 °F - 23.0 °F 75% 30.40 in 9.0 mi Variable 2.3 mph - N/A   Clear
1:00 PM 32.0 °F 26.4 °F 21.2 °F 64% 30.39 in 9.0 mi SSE 5.8 mph - N/A   Clear
2:00 PM 30.2 °F 25.4 °F 15.8 °F 55% 30.39 in 9.0 mi SE 4.6 mph - N/A   Clear
3:00 PM 30.2 °F 25.4 °F 15.8 °F 55% 30.39 in 9.0 mi SSE 4.6 mph - N/A   Clear
4:00 PM 28.4 °F 23.3 °F 17.6 °F 64% 30.39 in 9.0 mi SSE 4.6 mph - N/A   Partly Cloudy
5:00 PM 28.4 °F - 19.4 °F 69% 30.40 in 9.0 mi Variable 2.3 mph - N/A   Mostly Cloudy
6:00 PM 28.4 °F 22.2 °F 17.6 °F 64% 30.38 in 9.0 mi ESE 5.8 mph - N/A   Partly Cloudy
7:00 PM 24.8 °F 20.5 °F 19.4 °F 80% 30.38 in 9.0 mi SE 3.5 mph - N/A   Clear
8:00 PM 26.6 °F 19.1 °F 17.6 °F 69% 30.40 in 9.0 mi ENE 6.9 mph - N/A   Mostly Cloudy
9:00 PM 26.6 °F 20.0 °F 19.4 °F 74% 30.40 in 9.0 mi ENE 5.8 mph - N/A   Scattered Clouds
10:00 PM 28.4 °F 21.2 °F 23.0 °F 80% 30.40 in 9.0 mi ENE 6.9 mph - N/A   Overcast
11:00 PM 26.6 °F 20.0 °F 23.0 °F 86% 30.40 in 9.0 mi ENE 5.8 mph - N/A   Partly Cloudy